Location: Saint-Palais-sur-Mer
(45.6429°N, 1.0859°W)
Time: 15:22:59
(UTC+01:00)

ARIANE 6 FM1 Upper Stage - Pass Details

Date: 19 January 2026
Orbit: 522 x 609 km, 62.0° (Epoch: 13 February)

Event Time Altitude Azimuth Distance (km) Brightness Sun altitude
Rises 20:09:17 0° 193° (SSW) 2,711 6.4 -23.6°
Reaches altitude 10° 20:11:42 10° 182° (S) 1,807 5.3 -24.0°
Enters shadow 20:12:15 13° 178° (S) 1,616 5.0 -24.1°
